Location: Bakov nad Jizerou
(50.4784°N, 14.9394°E)
Time: 20:47:52
(UTC+00:00)

SL-8 R/B - Pass Details

Date: 29 October 2021
Orbit: 656 x 667 km, 48.4° (Epoch: 03 December)

Event Time Altitude Azimuth Distance (km) Brightness Sun altitude
Rises 16:56:45 0° 273° (W) 2,984 9.0 -12.5°
Reaches altitude 10° 16:59:06 10° 271° (W) 2,073 7.7 -12.9°
Maximum altitude 17:03:50 64° 190° (S) 731 4.0 -13.7°
Enters shadow 17:07:14 19° 113° (ESE) 1,571 5.1 -14.2°
